Temperature
-1 0 0 0 0 0 0 1 1 2 2 3 3 2 2 3 3 3 3 3 3 3 3 3 3 3 2 2 2 2 2 2 2 2 2 2 2 2 2 2 2 2 2 1
-1 -0 -0 -0 0 0 0 1 1 1 2 2 2 2 2 2 2 2 2 2 2 2 2 2 2 2 2 2 1 1 1 1 2 2 2 2 2 1 1 1 1 1 1 1
-1 -1 -0 -0 0 0 -0 -0 -0 1 2 1 1 1 1 2 2 2 2 2 2 2 2 2 2 2 2 1 1 1 1 1 1 1 1 1 1 1 1 1 1 1 1 1
-2 -1 -0 1 -0 -0 -0 -0 -1 -0 0 0 1 1 2 2 2 2 2 2 2 2 1 1 1 1 1 1 1 1 1 1 1 1 1 1 1 1 0 0 0 0 0 0
-2 -2 -1 0 -0 -1 -1 -1 -1 -1 -0 -0 0 0 1 2 2 2 2 1 1 1 1 1 1 1 1 1 1 0 0 0 0 0 0 0 0 0 -0 -0 -0 -0 -0 -0
-2 -2 -1 1 -0 -1 -1 -1 -1 -1 -1 -1 -1 -1 0 2 1 1 1 1 1 1 1 1 1 0 0 0 0 -0 -0 -0 -0 -0 -0 -0 -0 -0 -0 -1 -1 -1 -1 -1
-3 -2 -2 -1 -1 -1 -0 0 0 -0 -0 -1 -1 -0 1 1 1 1 1 1 1 0 0 0 0 -0 -0 -0 -0 -0 -0 -0 -0 -1 -1 -1 -1 -1 -1 -1 -1 -1 -1 -2
-3 -2 -1 -1 -2 -1 -1 0 0 0 0 -0 -0 -0 -0 0 0 0 0 0 0 0 -0 -0 -0 -0 -1 -1 -1 -1 -1 -1 -1 -1 -1 -1 -1 -1 -2 -2 -2 -2 -2 -2
-3 -1 -1 -1 -1 0 0 -0 -0 -0 0 -0 -1 -1 -1 -0 -0 -0 -0 -0 -0 -0 -0 -0 -1 -1 -1 -1 -1 -1 -1 -1 -1 -1 -1 -2 -2 -2 -2 -2 -2 -3 -3 -3
-4 -3 -2 -1 -1 -0 -0 -0 -0 -0 -0 -0 -1 -1 -1 -1 -1 -1 -0 -0 -1 -1 -1 -1 -1 -1 -1 -1 -2 -2 -2 -2 -2 -2 -2 -2 -2 -2 -2 -3 -3 -3 -3 -3
-5 -4 -3 -1 -1 -0 -0 -0 -0 -0 -0 -0 -1 -1 -1 -1 -1 -1 -1 -1 -1 -1 -1 -1 -1 -2 -2 -2 -2 -2 -2 -2 -2 -2 -2 -2 -2 -3 -3 -3 -3 -3 -3 -3
-3 -3 -3 -2 -1 -1 -1 -1 -1 -1 -1 -1 -1 -1 -1 -1 -1 -1 -1 -1 -2 -2 -2 -2 -2 -2 -2 -2 -2 -2 -2 -2 -3 -3 -3 -3 -3 -3 -3 -3 -4 -4 -4 -4
-2 -2 -2 -2 -2 -1 -2 -2 -2 -1 -1 -1 -1 -1 -1 -1 -2 -2 -2 -2 -2 -2 -2 -2 -2 -2 -2 -3 -3 -3 -3 -3 -3 -3 -3 -3 -3 -4 -4 -4 -4 -4 -4 -4
-2 -2 -3 -3 -3 -2 -2 -2 -2 -2 -2 -2 -2 -2 -2 -2 -2 -2 -2 -2 -2 -2 -2 -2 -3 -3 -3 -3 -3 -3 -3 -3 -3 -4 -4 -4 -4 -4 -4 -4 -4 -4 -4 -4
-3 -3 -3 -3 -3 -3 -3 -3 -3 -2 -2 -2 -2 -2 -2 -2 -2 -2 -2 -2 -3 -3 -3 -3 -3 -3 -3 -3 -3 -4 -4 -4 -4 -4 -4 -4 -4 -4 -4 -5 -5 -5 -5 -5
-3 -3 -4 -4 -4 -3 -3 -3 -3 -3 -3 -3 -3 -3 -3 -3 -3 -3 -3 -3 -3 -3 -3 -3 -3 -4 -4 -4 -4 -4 -4 -4 -4 -4 -4 -4 -4 -5 -5 -5 -5 -5 -5 -5
-4 -4 -4 -4 -4 -4 -4 -4 -4 -3 -3 -3 -3 -3 -3 -3 -3 -3 -3 -4 -4 -4 -4 -4 -4 -4 -4 -4 -4 -4 -5 -5 -5 -5 -5 -5 -5 -5 -5 -5 -5 -5 -5 -5
-4 -4 -4 -4 -4 -4 -4 -4 -4 -4 -4 -4 -4 -4 -4 -4 -4 -4 -4 -4 -4 -4 -4 -4 -4 -4 -4 -5 -5 -5 -5 -5 -5 -5 -5 -5 -5 -5 -5 -5 -5 -5 -5 -5
-4 -4 -4 -4 -4 -4 -4 -4 -4 -4 -4 -4 -4 -4 -4 -4 -4 -4 -4 -4 -4 -4 -5 -5 -5 -5 -5 -5 -5 -5 -5 -5 -5 -5 -5 -5 -5 -5 -5 -5 -5 -5 -5 -5
-4 -4 -4 -4 -4 -4 -4 -4 -4 -4 -4 -4 -4 -4 -5 -5 -5 -5 -5 -5 -5 -5 -5 -5 -5 -5 -5 -5 -5 -5 -5 -5 -5 -5 -5 -6 -6 -6 -6 -6 -6 -6 -6 -6
-4 -4 -5 -5 -4 -4 -5 -5 -5 -5 -5 -5 -5 -5 -5 -5 -5 -5 -5 -5 -5 -5 -5 -5 -5 -5 -5 -5 -6 -6 -6 -6 -6 -6 -6 -6 -6 -6 -6 -6 -6 -6 -6 -6
-5 -5 -5 -5 -5 -5 -5 -5 -5 -5 -5 -5 -5 -5 -6 -6 -6 -6 -6 -6 -6 -6 -6 -6 -6 -6 -6 -6 -6 -6 -6 -6 -6 -6 -6 -6 -6 -6 -6 -6 -6 -6 -6 -6
-5 -5 -5 -5 -5 -5 -5 -5 -5 -6 -6 -6 -6 -6 -6 -6 -6 -6 -6 -6 -6 -6 -6 -6 -6 -6 -6 -6 -6 -6 -6 -6 -6 -6 -6 -6 -6 -6 -6 -6 -6 -6 -6 -6
-5 -5 -6 -6 -6 -6 -6 -6 -6 -6 -6 -6 -6 -6 -6 -6 -6 -6 -6 -6 -6 -6 -6 -6 -6 -6 -6 -6 -7 -6 -6 -7 -7 -7 -6 -6 -6 -6 -6 -6 -6 -6 -6 -6
-6 -6 -6 -6 -6 -6 -6 -6 -6 -6 -6 -6 -7 -7 -7 -7 -7 -6 -7 -7 -6 -6 -6 -6 -6 -6 -6 -7 -7 -7 -7 -7 -7 -7 -6 -6 -6 -6 -6 -7 -6 -6 -6 -7
-6 -6 -6 -6 -6 -6 -6 -7 -7 -7 -7 -7 -7 -7 -7 -7 -7 -7 -7 -7 -7 -7 -7 -7 -7 -7 -7 -7 -7 -7 -7 -7 -7 -7 -7 -7 -7 -7 -7 -7 -7 -7 -7 -7
-6 -6 -6 -6 -6 -6 -6 -7 -7 -7 -7 -7 -7 -7 -7 -7 -7 -7 -7 -7 -7 -7 -7 -7 -7 -7 -7 -7 -7 -7 -7 -7 -7 -7 -7 -7 -7 -7 -7 -7 -7 -7 -7 -7
Wind_Speed
7 7 4 7 9 9 11 10 10 11 12 16 12 9 8 6 4 3 3 2 2 3 2 2 2 2 2 2 1 1 0 0 1 1 1 1 1 1 2 2 2 2 2 1
4 5 6 8 10 11 12 11 12 13 15 13 9 6 6 5 4 4 4 3 3 2 2 3 3 3 2 2 1 1 1 1 0 1 1 1 1 1 2 2 2 1 1 1
4 3 2 7 8 9 6 6 7 11 12 8 7 7 7 6 6 6 5 4 3 3 3 3 3 3 3 2 1 1 1 1 1 1 1 1 1 2 1 2 2 1 1 1
2 1 6 7 2 5 7 7 7 7 8 8 8 8 6 5 6 6 5 4 3 3 2 2 2 2 1 1 1 1 1 1 1 1 1 1 1 1 1 1 1 1 1 1
2 3 7 7 3 3 4 6 5 8 9 8 6 5 5 4 4 5 5 4 3 3 2 1 1 2 2 1 2 2 1 1 1 1 1 1 1 1 0 1 1 1 1 1
3 3 6 6 3 1 2 5 5 5 7 6 3 4 7 4 2 3 2 2 2 1 0 1 1 2 3 2 2 2 2 1 1 2 2 2 2 1 0 1 1 0 1 1
5 5 7 7 2 3 2 6 5 4 6 4 5 6 5 4 3 2 1 1 1 1 1 1 1 2 2 2 2 2 1 1 1 1 1 2 2 1 1 1 1 0 1 1
4 4 8 3 3 5 7 5 5 5 5 6 6 5 4 3 2 1 1 1 1 1 0 1 1 2 2 2 2 1 1 1 1 1 1 1 2 1 1 1 1 0 0 1
8 8 5 4 6 6 4 6 6 6 7 5 5 5 4 3 2 2 1 1 1 1 0 1 0 2 2 2 1 1 1 1 1 1 1 2 2 2 1 1 1 1 1 1
5 9 8 7 7 7 7 7 7 7 6 5 5 4 4 3 2 1 1 1 1 1 1 1 1 0 1 1 1 1 1 1 2 2 1 1 1 2 1 1 1 1 1 2
7 8 7 7 7 8 7 7 6 6 5 5 4 4 4 3 2 2 1 1 1 1 1 2 1 0 1 1 1 1 1 1 1 1 1 1 0 1 1 2 3 2 2 2
7 6 5 7 6 6 6 7 6 5 5 3 3 4 3 3 2 1 1 1 0 1 1 1 1 1 1 1 1 2 1 1 1 1 1 1 0 1 1 1 2 3 3 3
8 8 7 8 7 5 5 5 5 4 4 3 2 2 2 2 1 1 1 1 1 1 1 1 1 1 1 1 1 2 2 1 1 1 1 1 1 1 1 2 2 2 2 3
7 6 6 6 6 5 4 4 3 3 3 2 1 1 1 1 1 1 1 2 1 1 1 1 1 2 2 1 1 1 1 2 2 1 1 1 1 1 1 1 1 2 2 3
6 5 6 6 5 5 4 3 3 4 3 3 1 0 1 1 1 2 1 1 0 0 1 1 1 2 1 1 1 1 1 1 1 1 1 1 1 1 1 1 1 2 2 2
6 4 4 5 6 5 4 3 3 4 3 2 2 2 1 0 1 1 1 0 0 1 2 2 2 2 1 1 1 1 1 2 1 1 1 1 1 1 1 1 2 2 2 2
3 4 5 6 6 5 4 4 3 4 3 3 3 2 1 1 1 1 2 1 2 2 2 2 3 2 1 1 2 1 1 1 2 1 1 1 1 2 2 2 2 2 2 3
5 6 6 5 5 5 4 3 3 3 3 3 2 0 0 0 1 2 2 2 2 3 3 2 2 1 1 1 2 2 1 1 1 1 1 1 1 1 1 2 2 2 2 3
4 5 5 4 4 3 3 3 3 3 2 1 1 1 2 2 2 2 1 1 2 3 3 3 2 1 1 2 1 1 1 1 1 1 1 1 1 1 1 1 1 2 2 2
4 4 3 4 3 2 3 3 3 2 2 1 1 1 1 2 2 1 1 2 3 3 3 3 2 1 2 2 2 1 1 1 1 1 1 1 1 1 1 2 2 2 2 2
4 4 4 4 4 3 3 3 2 2 2 1 2 2 2 2 2 1 1 3 3 3 3 3 2 2 2 2 2 1 1 1 1 1 1 1 1 1 1 2 2 2 2 2
4 3 3 3 3 4 4 3 2 2 2 1 2 2 2 2 2 2 3 3 3 3 2 2 2 2 2 1 1 1 1 2 1 1 1 2 2 2 2 2 2 2 2 2
3 3 3 3 3 3 3 3 2 2 2 2 2 2 2 3 2 2 3 2 2 3 2 2 3 3 1 1 1 1 1 1 1 1 2 2 2 2 2 2 2 2 2 2
3 2 2 2 2 2 3 3 3 2 2 2 3 3 2 2 2 2 2 4 4 4 2 3 3 2 0 0 1 1 1 1 1 1 1 1 1 1 2 2 2 2 2 2
2 2 2 2 2 2 2 2 2 2 2 2 3 3 2 2 2 2 2 3 4 3 2 3 3 1 0 0 0 1 1 1 1 1 1 1 1 1 2 2 2 2 2 2
2 2 2 3 3 2 2 1 2 2 2 2 2 2 2 1 1 1 1 2 2 2 2 1 1 1 0 0 0 1 1 1 1 1 1 1 1 1 1 1 2 2 2 2
2 2 2 2 2 2 1 1 2 2 2 2 2 2 2 1 1 1 1 1 1 1 1 1 1 0 0 0 0 0 0 0 1 1 1 1 1 1 1 2 2 2 2 2
Wind_Direction
251 263 252 249 253 226 217 219 229 251 257 272 283 288 288 282 277 282 293 294 256 237 235 229 222 220 215 225 223 175 150 193 216 197 161 128 126 152 160 163 173 171 171 186
267 252 253 268 263 243 240 239 241 258 268 273 281 285 287 276 261 261 263 263 269 252 232 230 225 225 215 225 224 164 164 204 244 113 115 117 115 126 138 142 141 141 162 178
254 283 309 273 250 229 225 219 212 242 259 284 293 284 273 260 248 251 254 252 247 250 235 232 227 218 213 221 199 163 169 174 157 135 128 113 106 108 123 126 125 130 154 157
246 31 242 246 223 217 231 244 231 253 279 283 279 288 277 251 237 243 241 242 244 244 259 251 227 212 196 187 174 165 170 183 175 154 141 112 96 104 119 115 127 146 195 200
192 238 273 290 276 212 218 266 247 254 275 294 307 316 293 265 231 233 235 237 239 232 240 248 231 195 160 175 166 158 188 208 206 178 160 146 157 195 170 122 141 176 197 207
183 215 249 261 283 271 141 283 274 251 267 283 333 301 287 301 283 260 242 228 224 209 200 226 251 169 151 174 176 196 215 213 201 180 178 188 196 205 210 165 172 180 255 239
211 229 259 267 287 100 162 263 293 272 270 257 238 249 278 294 292 268 242 229 191 180 201 237 225 150 159 179 210 226 210 175 160 171 191 194 186 185 169 146 123 141 253 269
185 217 254 245 135 191 238 278 284 278 272 261 262 277 283 278 271 272 275 265 194 163 229 283 192 155 172 216 237 195 157 154 165 180 193 174 168 175 157 150 145 159 296 315
200 222 253 219 227 252 263 273 276 275 278 266 266 273 279 273 260 264 244 254 242 172 198 311 276 165 186 235 192 139 137 170 182 175 186 173 166 167 162 162 181 211 219 273
251 265 268 268 271 277 270 265 273 275 277 266 261 262 271 267 263 263 254 237 213 166 188 290 308 189 195 196 168 147 156 160 148 151 155 141 160 167 175 197 206 219 231 254
254 276 297 283 270 276 282 284 286 290 279 259 244 255 253 249 254 245 247 258 205 192 218 260 273 262 199 176 154 145 155 154 141 138 141 131 118 204 209 222 220 224 229 228
243 254 251 273 284 281 282 285 283 287 294 280 233 240 245 247 251 238 229 232 211 212 222 258 239 244 242 179 162 154 169 170 164 159 151 145 130 357 331 268 273 272 265 263
251 268 260 276 291 289 281 289 293 287 277 282 279 230 223 250 256 231 243 236 234 241 243 244 241 256 266 203 182 181 194 197 188 180 170 175 184 193 311 338 331 308 294 289
262 273 278 282 285 296 292 296 310 322 311 287 281 277 196 236 267 248 259 265 264 253 259 242 244 266 267 211 190 192 200 210 199 193 190 192 198 210 217 250 306 318 312 303
273 259 263 288 302 307 308 318 336 331 330 334 338 291 209 207 238 265 288 303 348 328 298 262 252 269 266 203 197 203 205 209 200 192 197 195 194 199 208 225 251 280 306 315
293 293 288 292 292 300 313 318 311 310 318 315 318 310 302 252 275 315 334 81 202 266 274 264 261 266 247 205 200 211 224 236 233 200 192 185 183 192 213 229 244 258 270 285
289 292 290 292 290 293 291 281 272 281 295 290 283 298 343 27 6 343 333 319 292 278 277 269 270 281 254 218 205 210 217 225 237 225 202 204 206 211 224 232 243 261 273 276
253 262 267 273 280 285 288 285 275 276 278 277 282 283 261 250 270 289 310 327 334 330 311 291 279 270 241 228 218 205 197 201 214 217 208 211 225 226 230 234 243 262 282 286
283 282 287 289 287 279 281 283 282 281 279 261 235 246 256 259 264 279 300 318 307 302 303 307 303 289 248 241 230 188 177 188 213 223 209 230 256 243 244 247 256 265 276 284
306 309 316 320 324 308 291 293 291 291 282 252 233 255 276 278 272 272 273 274 269 272 287 294 290 269 253 236 229 194 189 191 199 210 216 216 227 234 240 250 257 263 269 273
315 321 327 326 323 323 313 302 291 285 290 265 235 248 263 277 274 259 257 286 296 296 296 295 292 266 246 232 219 185 187 187 191 198 210 221 232 239 245 253 258 261 265 271
312 319 319 317 319 323 323 318 302 292 299 292 277 265 264 274 280 280 266 259 279 296 306 286 275 261 254 231 188 186 192 196 206 208 213 222 228 241 250 258 263 268 269 269
304 305 307 308 304 308 323 329 323 306 293 281 271 262 259 263 258 258 289 289 278 288 300 280 283 273 242 165 186 194 196 204 217 225 227 227 234 243 252 260 269 274 276 277
301 301 299 300 305 321 324 322 322 315 297 289 279 266 256 269 282 264 266 288 292 294 291 290 297 287 204 151 180 192 206 221 223 227 241 251 254 257 260 268 278 281 279 280
293 295 301 309 309 297 292 306 321 323 316 306 299 293 274 250 255 277 283 284 293 301 301 296 298 303 54 169 188 201 216 231 222 212 226 250 258 260 265 267 270 274 277 280
288 285 279 272 269 269 276 288 294 301 306 309 312 312 311 298 278 284 291 292 293 301 306 305 306 312 270 204 221 229 232 256 271 252 244 254 260 261 262 266 271 271 276 278
288 284 285 295 287 258 251 254 261 274 275 274 295 307 312 314 316 318 314 312 313 316 327 340 342 343 316 237 228 213 215 242 250 254 259 261 267 268 269 273 280 284 290 291
Height
1490 1488 1489 1487 1484 1484 1485 1483 1483 1472 1468 1458 1456 1455 1452 1451 1449 1449 1449 1448 1448 1448 1448 1449 1449 1450 1450 1451 1451 1452 1452 1452 1452 1453 1453 1454 1454 1455 1456 1457 1458 1459 1460 1461
1490 1485 1485 1483 1478 1477 1477 1476 1473 1468 1463 1455 1453 1452 1450 1449 1448 1447 1446 1446 1446 1447 1447 1447 1447 1447 1448 1448 1449 1449 1450 1450 1451 1451 1451 1451 1452 1452 1453 1454 1455 1456 1457 1458
1489 1486 1483 1481 1471 1470 1470 1468 1468 1465 1458 1453 1452 1449 1447 1446 1445 1445 1445 1445 1445 1445 1445 1445 1445 1445 1446 1446 1446 1447 1447 1448 1448 1448 1448 1449 1449 1450 1451 1451 1452 1453 1454 1455
1490 1489 1485 1468 1463 1463 1463 1461 1461 1458 1454 1451 1449 1446 1444 1443 1443 1442 1443 1443 1443 1443 1443 1443 1443 1443 1444 1444 1444 1445 1445 1445 1445 1446 1447 1447 1447 1448 1448 1449 1450 1450 1451 1452
1489 1487 1478 1466 1462 1462 1462 1458 1454 1454 1451 1448 1447 1444 1441 1440 1440 1440 1441 1441 1441 1441 1440 1440 1440 1441 1441 1441 1441 1442 1443 1443 1444 1444 1444 1445 1445 1445 1446 1446 1447 1448 1449 1449
1486 1485 1479 1463 1458 1457 1459 1458 1450 1449 1448 1447 1446 1447 1440 1438 1438 1438 1438 1438 1438 1438 1438 1438 1438 1438 1438 1438 1438 1439 1440 1441 1442 1442 1442 1443 1443 1444 1444 1444 1445 1445 1446 1447
1483 1481 1472 1459 1457 1457 1463 1456 1448 1446 1445 1444 1444 1442 1439 1437 1436 1436 1435 1436 1436 1436 1435 1435 1435 1436 1436 1436 1436 1437 1438 1439 1439 1440 1440 1441 1441 1442 1442 1442 1442 1443 1443 1444
1482 1479 1469 1455 1456 1457 1452 1447 1445 1444 1442 1441 1439 1437 1436 1435 1434 1433 1433 1433 1433 1433 1433 1433 1434 1434 1433 1433 1434 1435 1435 1436 1436 1437 1438 1439 1439 1439 1440 1440 1440 1440 1441 1441
1468 1462 1453 1451 1450 1448 1447 1445 1443 1441 1439 1438 1436 1434 1433 1432 1432 1431 1431 1431 1431 1431 1431 1431 1431 1432 1431 1432 1432 1432 1432 1433 1433 1434 1435 1436 1437 1437 1437 1438 1438 1438 1438 1438
1462 1454 1449 1447 1446 1444 1443 1441 1439 1437 1436 1434 1432 1431 1430 1430 1430 1429 1429 1429 1430 1430 1429 1429 1429 1430 1430 1430 1430 1430 1430 1430 1430 1431 1433 1434 1435 1435 1435 1436 1436 1436 1436 1436
1458 1450 1446 1442 1442 1440 1438 1437 1435 1433 1432 1431 1430 1429 1428 1428 1427 1427 1427 1427 1428 1428 1428 1428 1428 1428 1428 1428 1428 1428 1428 1428 1429 1430 1431 1432 1433 1433 1434 1434 1434 1434 1434 1435
1451 1446 1445 1441 1439 1437 1435 1433 1431 1429 1428 1427 1427 1426 1426 1426 1426 1425 1425 1426 1426 1426 1426 1426 1425 1426 1426 1426 1426 1426 1426 1427 1428 1428 1429 1430 1430 1431 1432 1432 1432 1432 1433 1433
1444 1442 1440 1437 1435 1434 1432 1430 1428 1426 1425 1425 1424 1424 1424 1424 1423 1424 1424 1424 1424 1424 1424 1424 1424 1424 1424 1424 1424 1424 1424 1425 1426 1427 1427 1428 1428 1429 1429 1430 1430 1431 1431 1431
1440 1439 1436 1433 1432 1430 1429 1427 1425 1424 1423 1422 1422 1422 1422 1422 1422 1422 1422 1422 1422 1422 1422 1422 1422 1422 1422 1422 1423 1423 1423 1423 1424 1425 1425 1426 1426 1427 1427 1427 1427 1428 1429 1428
1435 1434 1433 1430 1428 1427 1426 1424 1422 1421 1421 1421 1421 1420 1420 1420 1420 1420 1420 1420 1420 1420 1420 1420 1420 1420 1420 1420 1421 1421 1421 1421 1422 1422 1423 1424 1424 1425 1425 1425 1425 1425 1425 1426
1431 1430 1429 1427 1425 1424 1423 1422 1421 1420 1420 1419 1419 1419 1418 1418 1418 1418 1418 1418 1418 1418 1418 1418 1418 1418 1418 1419 1419 1419 1419 1420 1420 1421 1421 1422 1422 1423 1423 1423 1423 1423 1423 1423
1429 1427 1425 1424 1422 1421 1421 1420 1419 1419 1418 1418 1417 1417 1417 1417 1416 1416 1416 1417 1417 1417 1416 1416 1416 1416 1417 1417 1417 1417 1418 1418 1419 1419 1420 1420 1420 1421 1421 1421 1421 1421 1421 1422
1427 1425 1424 1422 1421 1420 1419 1418 1418 1417 1417 1416 1416 1415 1415 1415 1414 1414 1415 1415 1415 1415 1415 1415 1415 1414 1415 1415 1415 1416 1416 1417 1417 1417 1418 1418 1418 1419 1419 1419 1419 1420 1420 1420
1424 1422 1421 1420 1419 1418 1417 1417 1416 1416 1416 1415 1415 1414 1414 1413 1413 1413 1413 1413 1413 1413 1413 1413 1413 1413 1413 1413 1414 1414 1414 1415 1415 1416 1416 1417 1417 1417 1417 1418 1418 1418 1418 1417
1421 1420 1419 1418 1417 1416 1415 1415 1415 1414 1414 1413 1413 1412 1412 1412 1412 1411 1411 1411 1411 1411 1412 1411 1411 1411 1411 1411 1412 1412 1412 1413 1414 1414 1414 1415 1415 1415 1415 1416 1416 1416 1416 1416
1419 1418 1417 1416 1415 1414 1414 1413 1413 1412 1412 1411 1411 1410 1410 1410 1410 1410 1409 1409 1410 1410 1410 1410 1410 1409 1409 1410 1410 1410 1410 1411 1412 1412 1412 1413 1413 1413 1414 1414 1414 1414 1414 1413
1418 1416 1415 1415 1413 1412 1412 1411 1411 1410 1410 1409 1409 1409 1408 1408 1408 1408 1408 1408 1408 1408 1408 1408 1408 1408 1408 1408 1408 1408 1408 1409 1409 1410 1410 1411 1411 1411 1411 1412 1412 1412 1411 1411
1416 1415 1414 1413 1412 1411 1410 1410 1409 1409 1408 1408 1408 1407 1407 1407 1407 1406 1406 1406 1406 1406 1406 1406 1406 1406 1406 1406 1406 1406 1406 1407 1407 1408 1408 1408 1409 1409 1409 1409 1409 1409 1409 1409
1415 1414 1413 1412 1411 1410 1409 1408 1408 1407 1407 1406 1406 1406 1405 1405 1405 1405 1405 1404 1404 1404 1404 1404 1404 1404 1404 1404 1404 1404 1404 1405 1405 1406 1406 1406 1407 1407 1407 1407 1407 1407 1407 1407
1413 1412 1411 1410 1409 1408 1408 1407 1407 1406 1405 1405 1404 1404 1404 1404 1403 1403 1403 1403 1402 1402 1402 1402 1402 1402 1402 1402 1402 1402 1402 1403 1403 1404 1404 1404 1405 1405 1405 1405 1405 1405 1405 1404
1412 1411 1410 1409 1408 1407 1407 1406 1405 1405 1404 1403 1403 1403 1402 1402 1402 1402 1401 1401 1401 1400 1400 1400 1400 1400 1400 1400 1400 1401 1401 1401 1401 1402 1402 1403 1403 1403 1403 1403 1403 1403 1403 1402
1410 1409 1408 1407 1407 1406 1405 1404 1404 1403 1403 1402 1402 1401 1401 1401 1400 1400 1400 1400 1399 1399 1399 1399 1399 1399 1399 1399 1399 1399 1399 1400 1400 1400 1401 1401 1401 1401 1401 1401 1401 1401 1401 1401